Temp
-14 -14 -12 -12 -13 -13 -14 -13 -13 -13 -12 -11 -10 -9 -10 -10 -9 -9 -9 -9 -9 -9 -9 -9 -9 -8 -8 -8 -8 -8 -8 -8 -9 -9 -9 -9 -9 -9 -9 -9 -9 -9 -9 -9
-15 -13 -13 -14 -14 -14 -13 -13 -13 -13 -13 -12 -11 -10 -10 -10 -9 -9 -9 -9 -9 -10 -9 -9 -9 -9 -9 -9 -9 -9 -9 -9 -9 -9 -8 -9 -9 -9 -9 -9 -9 -9 -9 -9
-15 -14 -15 -14 -14 -14 -14 -13 -13 -14 -13 -13 -12 -10 -10 -10 -9 -9 -9 -9 -9 -9 -10 -9 -9 -9 -9 -9 -9 -9 -9 -9 -9 -9 -9 -9 -9 -9 -9 -9 -9 -10 -10 -10
-16 -15 -15 -15 -14 -14 -14 -14 -14 -15 -14 -13 -13 -10 -10 -10 -10 -9 -9 -9 -9 -9 -9 -9 -9 -9 -9 -9 -9 -9 -9 -9 -9 -9 -9 -9 -9 -9 -10 -10 -10 -10 -10 -10
-14 -15 -15 -15 -14 -15 -14 -15 -16 -16 -16 -14 -13 -12 -9 -10 -9 -9 -9 -9 -9 -10 -9 -9 -9 -9 -9 -9 -9 -9 -9 -9 -9 -9 -9 -9 -9 -10 -10 -10 -10 -10 -10 -10
-17 -17 -17 -15 -16 -16 -16 -17 -16 -16 -16 -15 -12 -12 -8 -10 -9 -10 -10 -10 -10 -9 -9 -9 -9 -9 -9 -9 -9 -8 -9 -9 -9 -9 -9 -9 -9 -10 -10 -10 -10 -10 -10 -11
-17 -17 -16 -17 -16 -17 -16 -16 -16 -16 -15 -12 -12 -12 -9 -10 -11 -11 -11 -10 -10 -9 -9 -9 -9 -9 -9 -9 -9 -9 -9 -9 -9 -9 -9 -9 -9 -10 -10 -10 -10 -11 -11 -11
-19 -17 -16 -16 -16 -16 -16 -16 -15 -15 -14 -13 -13 -11 -9 -10 -11 -11 -11 -12 -11 -10 -10 -10 -9 -9 -9 -9 -9 -9 -9 -9 -9 -10 -10 -9 -10 -10 -10 -10 -11 -11 -11 -11
-20 -18 -17 -17 -17 -18 -17 -18 -16 -17 -16 -15 -13 -11 -11 -11 -12 -12 -13 -13 -12 -11 -11 -10 -10 -9 -9 -9 -9 -9 -9 -9 -9 -9 -9 -9 -10 -10 -10 -11 -11 -11 -11 -11
-23 -20 -19 -19 -19 -20 -18 -17 -18 -18 -17 -15 -13 -12 -11 -12 -13 -13 -13 -12 -12 -11 -11 -11 -11 -10 -10 -10 -10 -9 -9 -9 -9 -10 -10 -10 -10 -10 -10 -11 -11 -11 -12 -12
-24 -24 -21 -20 -19 -17 -18 -19 -18 -18 -17 -15 -14 -13 -13 -13 -13 -13 -12 -12 -12 -12 -11 -12 -11 -11 -10 -10 -10 -10 -10 -10 -10 -10 -10 -10 -10 -10 -11 -11 -12 -12 -12 -12
-25 -26 -24 -22 -20 -20 -20 -20 -19 -18 -17 -16 -15 -14 -14 -13 -13 -14 -13 -13 -12 -12 -12 -12 -12 -12 -11 -11 -11 -10 -10 -10 -10 -10 -10 -10 -10 -11 -11 -12 -12 -12 -12 -12
-26 -25 -26 -25 -24 -22 -20 -19 -18 -19 -19 -17 -16 -14 -15 -14 -14 -14 -14 -14 -14 -13 -13 -13 -13 -12 -12 -12 -12 -11 -11 -11 -10 -11 -11 -10 -11 -11 -11 -12 -12 -12 -13 -13
-26 -25 -25 -24 -21 -21 -20 -20 -19 -19 -20 -17 -16 -16 -16 -15 -15 -15 -15 -14 -14 -14 -14 -13 -13 -13 -13 -13 -13 -12 -12 -11 -11 -11 -11 -11 -11 -11 -12 -12 -12 -13 -13 -13
-26 -26 -25 -25 -25 -24 -23 -22 -20 -20 -18 -19 -16 -17 -17 -17 -16 -16 -16 -16 -15 -14 -14 -14 -14 -13 -13 -13 -13 -13 -12 -12 -12 -12 -12 -12 -12 -12 -12 -12 -12 -12 -13 -13
-27 -27 -26 -26 -25 -25 -24 -23 -23 -21 -20 -19 -18 -17 -18 -17 -17 -17 -16 -16 -16 -15 -15 -15 -15 -14 -13 -13 -13 -12 -12 -12 -12 -12 -12 -12 -12 -12 -12 -12 -13 -13 -13 -13
-27 -26 -26 -26 -26 -25 -25 -24 -23 -21 -20 -19 -19 -18 -18 -18 -18 -18 -18 -18 -17 -16 -15 -14 -14 -14 -14 -14 -13 -13 -13 -13 -13 -13 -13 -13 -13 -13 -12 -13 -13 -13 -13 -13
-28 -27 -26 -26 -26 -26 -25 -25 -24 -22 -20 -20 -19 -19 -19 -19 -19 -19 -19 -19 -18 -17 -16 -15 -15 -15 -14 -14 -14 -14 -14 -14 -13 -13 -13 -13 -13 -13 -13 -13 -13 -13 -13 -13
-28 -28 -27 -27 -26 -26 -26 -24 -25 -22 -21 -21 -20 -19 -20 -20 -20 -20 -19 -19 -19 -18 -17 -16 -15 -15 -14 -14 -14 -14 -14 -14 -14 -14 -14 -14 -14 -14 -14 -13 -13 -13 -13 -13
-29 -28 -28 -28 -27 -26 -25 -25 -25 -23 -22 -22 -21 -21 -20 -20 -20 -20 -20 -20 -19 -18 -17 -16 -15 -15 -15 -14 -14 -15 -15 -15 -15 -14 -14 -14 -13 -14 -14 -14 -14 -14 -13 -14
-30 -30 -29 -28 -28 -27 -26 -26 -25 -24 -24 -23 -22 -21 -21 -21 -21 -21 -21 -21 -20 -19 -18 -17 -16 -15 -15 -15 -15 -15 -15 -15 -14 -14 -14 -14 -14 -14 -14 -14 -14 -14 -14 -14
-30 -31 -30 -29 -28 -28 -28 -27 -26 -25 -25 -24 -23 -22 -22 -21 -22 -22 -22 -20 -20 -20 -19 -18 -17 -16 -16 -16 -16 -15 -15 -14 -14 -14 -14 -15 -15 -15 -14 -14 -14 -14 -14 -14
-31 -31 -31 -30 -29 -28 -27 -27 -27 -26 -26 -25 -24 -23 -23 -23 -23 -23 -22 -22 -21 -20 -19 -18 -18 -17 -16 -16 -16 -16 -15 -15 -14 -15 -14 -14 -15 -15 -15 -15 -15 -14 -14 -14
-31 -31 -31 -31 -29 -28 -28 -28 -28 -28 -27 -26 -25 -24 -25 -24 -23 -23 -23 -22 -22 -22 -20 -19 -18 -17 -17 -16 -16 -16 -16 -15 -15 -15 -15 -15 -15 -15 -15 -15 -15 -15 -15 -15
-32 -32 -32 -32 -30 -29 -29 -28 -27 -28 -28 -27 -26 -26 -26 -25 -25 -23 -24 -23 -22 -22 -21 -20 -19 -18 -17 -17 -17 -16 -16 -16 -16 -15 -15 -15 -15 -15 -15 -15 -15 -15 -16 -16
-33 -33 -33 -32 -31 -30 -29 -29 -28 -27 -27 -28 -27 -26 -26 -26 -25 -25 -24 -23 -23 -22 -21 -21 -20 -20 -18 -18 -18 -17 -17 -16 -16 -16 -16 -15 -15 -15 -15 -15 -15 -16 -16 -16
Height
5660 5663 5672 5683 5685 5689 5692 5696 5701 5707 5709 5711 5716 5725 5734 5736 5742 5749 5755 5763 5768 5772 5773 5778 5783 5787 5792 5796 5799 5803 5806 5807 5810 5811 5813 5815 5816 5816 5816 5815 5814 5814 5813 5810
5643 5648 5662 5669 5672 5674 5680 5685 5692 5695 5698 5701 5704 5713 5722 5726 5735 5743 5748 5753 5759 5764 5766 5770 5775 5780 5785 5788 5792 5796 5799 5802 5804 5806 5807 5810 5811 5811 5811 5811 5810 5810 5809 5807
5626 5636 5646 5654 5660 5665 5671 5676 5681 5684 5687 5689 5692 5699 5711 5717 5725 5733 5740 5745 5751 5757 5761 5764 5768 5774 5777 5783 5786 5789 5792 5794 5797 5799 5803 5805 5804 5805 5806 5806 5806 5806 5805 5804
5605 5620 5627 5634 5646 5654 5657 5665 5667 5671 5674 5677 5682 5684 5700 5707 5713 5723 5731 5736 5742 5749 5754 5756 5760 5765 5772 5776 5778 5782 5785 5788 5791 5793 5796 5799 5798 5800 5801 5801 5802 5802 5801 5801
5595 5603 5608 5617 5633 5639 5646 5652 5655 5658 5660 5662 5671 5673 5693 5698 5704 5714 5721 5726 5732 5736 5743 5747 5751 5758 5763 5766 5771 5774 5777 5781 5784 5788 5791 5792 5793 5795 5795 5796 5797 5797 5797 5797
5572 5580 5593 5609 5617 5626 5632 5638 5643 5646 5648 5648 5667 5667 5679 5693 5699 5703 5707 5713 5719 5725 5732 5738 5743 5749 5756 5759 5763 5767 5772 5775 5778 5781 5784 5785 5787 5789 5790 5791 5792 5793 5793 5793
5548 5555 5575 5585 5593 5603 5612 5622 5626 5632 5634 5645 5651 5656 5670 5683 5689 5692 5696 5701 5707 5715 5721 5727 5733 5739 5745 5750 5754 5759 5763 5767 5771 5774 5776 5778 5780 5783 5784 5786 5787 5788 5788 5787
5528 5540 5557 5568 5577 5590 5596 5601 5612 5618 5624 5632 5635 5647 5655 5671 5678 5681 5686 5689 5695 5702 5709 5715 5721 5727 5733 5739 5744 5748 5753 5758 5762 5766 5768 5771 5773 5776 5778 5780 5781 5782 5782 5782
5509 5520 5538 5554 5566 5575 5581 5584 5608 5607 5613 5621 5629 5643 5648 5658 5668 5669 5675 5678 5682 5689 5697 5704 5710 5715 5721 5728 5733 5739 5744 5748 5753 5757 5760 5763 5766 5769 5771 5773 5775 5776 5776 5777
5495 5506 5519 5536 5543 5551 5567 5588 5586 5593 5604 5613 5622 5630 5640 5646 5652 5656 5662 5669 5671 5678 5685 5692 5699 5705 5711 5716 5722 5728 5733 5738 5743 5746 5750 5753 5758 5761 5765 5768 5768 5769 5770 5771
5483 5488 5504 5510 5519 5543 5551 5553 5569 5588 5598 5608 5616 5624 5632 5635 5640 5647 5652 5657 5662 5668 5674 5681 5687 5694 5701 5706 5712 5718 5723 5728 5733 5738 5742 5746 5750 5754 5758 5760 5761 5762 5764 5766
5474 5480 5483 5499 5514 5525 5533 5548 5562 5571 5583 5592 5599 5611 5615 5625 5630 5638 5643 5647 5652 5657 5663 5670 5677 5683 5690 5696 5702 5707 5713 5719 5724 5729 5733 5738 5742 5746 5750 5752 5754 5756 5758 5759
5463 5467 5476 5485 5494 5504 5518 5537 5549 5562 5575 5581 5596 5608 5613 5618 5624 5629 5636 5640 5643 5647 5652 5658 5665 5671 5677 5684 5691 5697 5703 5709 5715 5720 5725 5729 5734 5738 5741 5744 5746 5749 5751 5753
5456 5462 5466 5474 5488 5499 5507 5518 5531 5545 5552 5570 5579 5592 5598 5605 5612 5620 5625 5630 5635 5639 5644 5650 5656 5662 5668 5674 5680 5687 5693 5699 5705 5710 5715 5720 5724 5728 5731 5734 5738 5741 5745 5747
5447 5452 5456 5467 5475 5484 5497 5509 5520 5527 5547 5551 5573 5576 5586 5594 5603 5613 5619 5622 5626 5631 5636 5641 5648 5654 5660 5666 5672 5677 5684 5690 5695 5701 5706 5711 5715 5718 5723 5727 5731 5734 5738 5740
5437 5443 5448 5456 5466 5471 5478 5490 5502 5520 5535 5544 5554 5565 5574 5585 5594 5601 5607 5613 5619 5625 5629 5635 5641 5646 5652 5658 5664 5669 5675 5680 5686 5691 5696 5701 5706 5711 5715 5719 5723 5727 5731 5735
5429 5433 5439 5444 5452 5461 5469 5478 5489 5506 5517 5534 5539 5557 5565 5573 5582 5588 5594 5601 5609 5617 5624 5630 5635 5640 5645 5650 5655 5660 5666 5671 5676 5681 5687 5692 5698 5703 5708 5712 5716 5720 5724 5728
5418 5422 5429 5437 5443 5452 5458 5467 5478 5492 5506 5515 5527 5538 5550 5561 5567 5574 5582 5590 5598 5607 5615 5622 5627 5633 5639 5643 5648 5653 5658 5662 5667 5672 5678 5683 5689 5694 5700 5705 5709 5714 5718 5721
5411 5416 5419 5429 5437 5446 5450 5459 5468 5478 5495 5505 5512 5521 5531 5541 5550 5558 5567 5576 5586 5595 5604 5611 5617 5623 5630 5635 5641 5645 5650 5655 5660 5665 5670 5676 5681 5687 5693 5697 5702 5706 5710 5714
5403 5408 5417 5420 5427 5436 5447 5452 5457 5468 5483 5486 5495 5507 5519 5527 5528 5544 5551 5559 5570 5581 5590 5599 5607 5613 5619 5626 5632 5637 5642 5647 5652 5657 5663 5668 5673 5678 5684 5688 5693 5698 5702 5705
5395 5397 5405 5410 5416 5428 5438 5445 5451 5460 5469 5473 5481 5491 5503 5511 5517 5529 5533 5544 5556 5567 5577 5585 5593 5602 5608 5615 5623 5629 5635 5639 5645 5650 5655 5661 5666 5671 5676 5680 5685 5690 5694 5698
5386 5391 5397 5402 5409 5423 5430 5435 5445 5446 5448 5459 5469 5477 5485 5493 5502 5509 5518 5530 5539 5549 5559 5570 5581 5589 5597 5605 5613 5620 5625 5631 5637 5642 5647 5653 5658 5664 5668 5673 5677 5683 5687 5692
5379 5386 5389 5393 5401 5411 5416 5426 5432 5434 5440 5445 5455 5465 5471 5478 5487 5495 5503 5514 5526 5536 5546 5556 5565 5574 5583 5592 5600 5607 5615 5622 5628 5634 5640 5644 5649 5655 5661 5666 5671 5676 5681 5685
5371 5375 5376 5380 5395 5403 5404 5411 5420 5426 5434 5440 5446 5453 5460 5466 5472 5482 5490 5500 5507 5517 5526 5538 5548 5560 5569 5578 5586 5594 5602 5610 5616 5623 5629 5635 5640 5645 5651 5657 5661 5667 5672 5677
5364 5366 5370 5370 5380 5387 5390 5396 5403 5408 5416 5422 5430 5436 5442 5448 5452 5460 5469 5479 5489 5498 5508 5520 5530 5542 5554 5562 5570 5579 5588 5597 5604 5610 5617 5624 5630 5636 5641 5647 5652 5656 5661 5667
5356 5358 5356 5358 5366 5366 5373 5381 5384 5389 5397 5405 5412 5419 5426 5430 5438 5445 5452 5461 5474 5489 5498 5506 5515 5525 5535 5545 5553 5563 5571 5581 5590 5598 5604 5610 5618 5625 5630 5636 5641 5647 5652 5656
Wind_Speed
67 67 61 50 46 44 45 43 39 39 43 49 53 54 50 53 50 46 43 38 37 37 40 39 38 39 39 38 37 35 33 32 29 28 27 23 22 22 22 21 19 21 23 26
69 71 64 56 53 50 46 45 42 42 46 49 52 53 52 54 52 48 44 42 39 38 41 40 39 39 38 39 38 37 36 34 31 30 29 24 23 24 22 22 22 23 25 27
68 68 66 61 56 53 48 45 44 44 46 50 52 54 53 51 53 50 48 44 42 39 38 39 39 38 38 37 37 37 36 36 33 32 29 25 25 24 23 23 23 25 25 25
72 68 69 68 63 58 55 48 48 47 47 49 52 57 52 51 52 51 49 48 45 40 39 40 40 38 35 34 36 36 35 35 33 33 28 27 29 25 24 24 25 24 24 23
75 70 71 71 67 63 59 50 49 48 50 53 50 57 53 53 53 50 48 48 47 47 46 45 43 39 37 36 35 35 35 34 32 30 29 29 28 27 27 26 25 25 23 23
76 73 68 64 64 59 59 53 50 49 51 57 48 52 57 49 50 46 47 47 49 49 49 48 46 43 39 38 37 36 35 34 33 32 30 30 30 28 28 26 26 25 23 23
84 81 74 69 67 65 65 61 59 56 56 53 54 53 56 47 46 42 43 46 48 47 48 47 46 45 44 43 42 41 40 37 35 34 33 33 31 30 29 28 27 25 24 23
79 83 78 74 72 69 70 69 67 65 62 58 57 55 54 47 45 42 43 41 43 45 45 45 45 45 45 45 46 46 44 42 40 37 36 36 35 32 30 29 27 25 25 24
75 79 79 75 70 66 69 70 64 62 61 61 58 48 52 44 37 42 40 36 43 43 42 44 45 44 44 44 44 44 43 43 42 41 41 40 38 35 33 30 27 26 26 25
64 75 75 75 72 68 65 63 65 62 61 61 58 53 42 43 41 41 38 46 45 44 42 41 42 43 43 41 40 41 41 41 40 40 40 39 37 36 33 30 29 28 27 27
56 67 73 72 79 74 70 71 69 61 60 60 58 54 46 40 34 34 38 40 43 43 41 43 42 38 38 39 40 40 39 38 38 38 38 38 36 34 32 31 30 29 28 27
44 57 64 70 69 70 72 62 65 64 67 69 65 61 53 48 40 34 30 28 35 38 39 39 42 43 41 39 37 38 40 39 38 37 36 36 35 34 33 33 32 31 29 27
42 50 52 52 67 65 67 68 66 63 64 66 62 57 51 47 37 31 28 28 25 32 36 36 39 43 44 44 44 41 39 36 35 34 34 34 33 34 35 36 34 32 29 27
28 43 54 50 66 68 72 67 65 63 67 68 69 62 60 54 48 36 29 29 30 29 31 34 36 38 38 40 43 44 45 44 44 42 41 40 38 38 38 38 35 31 27 26
33 36 39 58 54 56 62 61 60 62 61 67 66 65 61 57 51 40 34 33 34 33 32 33 34 35 35 36 38 40 41 42 43 43 42 41 40 39 37 33 32 31 28 26
35 43 43 39 47 52 57 63 58 53 56 62 66 63 59 58 52 50 46 43 36 34 36 31 29 30 34 37 40 41 42 42 42 42 41 40 39 39 37 34 31 29 27 25
29 28 39 45 43 52 54 55 63 66 62 56 64 63 56 54 53 48 44 42 39 39 37 35 33 30 28 29 32 35 41 43 43 43 41 39 37 34 31 30 29 27 26 24
42 31 38 33 42 46 51 56 50 61 67 65 64 60 61 53 56 57 52 44 41 42 36 37 38 36 31 29 29 32 33 37 41 42 41 37 34 32 32 29 28 27 26 27
44 44 40 44 29 28 39 46 57 54 58 64 66 67 64 58 57 58 56 57 55 49 44 43 43 44 41 36 32 29 31 34 33 34 38 38 36 33 31 30 31 30 31 30
44 51 43 43 45 38 32 24 49 53 56 60 66 67 65 68 66 58 58 57 56 56 53 52 47 48 45 43 40 36 30 31 33 35 34 33 35 35 35 35 34 33 34 33
43 45 47 48 44 44 41 37 26 47 54 59 60 63 67 66 65 59 62 61 61 58 63 62 59 54 53 48 46 42 37 35 31 31 34 35 34 34 36 36 36 36 36 34
45 40 49 52 48 47 43 39 38 35 44 53 58 61 64 67 68 65 63 63 65 67 67 66 62 59 60 56 51 48 47 42 39 35 34 35 35 34 35 36 37 37 37 36
47 45 46 54 55 51 52 47 44 43 33 47 56 59 61 61 62 65 70 67 64 65 67 69 69 66 61 62 60 54 52 48 45 42 39 38 39 39 39 39 39 39 39 38
53 51 51 53 56 57 57 58 50 45 46 36 46 56 50 63 65 62 63 69 70 70 69 68 68 68 68 66 67 65 59 53 52 48 46 43 41 43 43 44 43 42 41 40
43 45 43 46 62 66 65 64 65 61 53 53 48 48 41 42 47 68 69 66 71 75 74 73 71 69 69 71 69 68 66 60 57 56 53 49 47 45 46 47 47 46 43 42
31 34 37 42 55 66 70 72 75 73 66 60 65 62 54 50 47 54 58 71 73 72 75 76 75 74 72 72 71 71 70 66 62 61 60 58 53 49 49 50 49 47 46 44
Wind_Direction
239 242 242 243 250 249 247 243 241 236 237 236 234 225 224 228 231 228 228 222 218 219 225 226 228 231 233 235 238 239 240 244 248 252 259 267 269 275 282 291 299 307 309 311
242 238 240 241 243 245 242 240 240 237 235 237 236 231 226 229 229 232 233 230 222 220 225 227 228 230 233 235 238 242 245 248 252 257 263 265 266 272 278 282 286 293 300 309
243 240 241 240 241 245 246 244 240 240 238 238 238 234 228 231 231 230 232 235 232 226 228 231 231 231 232 235 237 241 244 248 251 255 261 263 264 269 272 277 284 291 298 306
240 239 237 235 234 240 242 241 239 237 237 240 240 239 229 230 232 230 231 234 235 233 233 234 234 234 234 235 236 239 242 247 251 255 257 261 262 267 269 274 279 288 294 303
239 237 239 234 232 233 238 239 239 238 238 236 234 241 223 229 232 232 232 231 233 234 231 234 236 235 235 236 238 239 242 245 250 256 257 257 262 264 266 271 277 283 290 296
235 236 235 238 235 234 237 238 238 239 239 240 235 241 228 226 235 234 236 235 233 233 235 235 236 238 237 239 239 241 245 244 246 249 252 255 258 261 264 268 273 279 285 290
229 231 230 231 231 227 229 232 234 234 236 242 239 239 240 232 232 235 237 237 236 235 236 236 237 237 236 237 240 242 244 246 247 248 249 252 255 258 262 266 270 275 279 283
230 231 228 227 230 228 229 228 232 233 236 237 238 236 241 234 234 235 234 235 236 235 235 236 236 237 237 237 239 240 241 242 244 246 248 251 253 255 259 262 265 269 273 278
228 228 229 229 233 232 225 226 230 233 236 239 242 241 241 241 235 240 230 225 234 235 232 233 235 236 237 237 238 241 243 244 243 243 245 248 250 253 255 257 261 263 268 272
227 228 226 227 228 228 228 231 227 228 234 239 240 240 240 242 239 235 234 231 235 237 235 233 231 233 236 238 239 240 242 243 241 241 242 246 248 251 255 257 258 261 264 269
219 229 226 226 225 226 226 224 224 227 234 241 244 243 241 244 247 243 239 236 235 237 235 233 231 230 231 233 236 238 238 239 240 240 243 246 249 252 253 253 254 257 260 265
220 221 233 226 227 228 227 228 230 228 226 226 229 232 239 236 237 233 229 229 227 231 232 231 231 231 230 230 230 232 235 236 236 237 238 240 243 246 248 249 251 254 258 261
217 221 231 228 226 225 226 226 228 226 228 233 237 238 241 242 243 245 232 227 223 222 224 224 223 225 225 224 225 227 228 229 233 236 237 239 240 240 243 246 248 251 253 258
226 225 218 239 229 227 225 222 222 225 222 225 224 230 236 235 233 233 231 213 216 219 219 221 225 225 224 226 227 228 229 230 230 230 232 234 235 236 238 240 242 246 248 250
222 224 225 225 231 231 227 229 227 222 222 223 224 230 231 236 236 232 224 210 203 212 219 219 220 222 227 228 227 227 227 229 231 232 235 238 240 240 240 241 241 242 242 241
212 221 227 220 219 230 229 222 218 221 224 223 224 226 231 232 235 235 233 222 215 215 225 231 233 231 228 228 228 227 227 227 228 230 232 234 237 238 238 236 234 234 233 236
210 184 206 220 214 221 231 228 223 221 217 219 224 225 225 228 232 234 233 232 230 225 223 225 228 232 231 231 229 230 230 230 232 232 233 234 235 236 235 231 228 228 227 229
233 213 217 191 209 214 222 219 223 221 222 219 218 221 225 224 227 227 222 222 221 228 228 224 224 225 225 226 228 228 226 226 229 229 229 227 227 229 229 226 226 227 228 227
240 232 234 221 197 199 213 218 218 221 216 219 223 220 217 221 222 224 225 224 225 222 217 216 218 222 221 220 219 223 226 227 226 226 227 227 228 228 226 225 225 226 226 228
250 244 241 243 231 227 194 185 218 220 218 217 219 221 220 220 222 217 220 220 220 215 210 212 214 219 220 222 222 225 224 221 221 222 222 221 222 222 221 220 221 222 225 227
256 260 254 249 245 225 224 217 203 213 221 218 218 219 219 219 223 217 216 216 217 217 213 212 220 221 224 226 227 225 224 221 219 219 220 219 218 219 220 221 222 222 224 227
255 261 260 255 254 236 225 221 207 194 210 219 219 219 220 221 220 221 219 219 217 217 219 220 222 225 225 229 230 230 226 223 222 223 222 221 220 219 221 222 223 227 229 229
259 263 260 257 252 244 237 223 215 213 203 214 220 218 220 222 222 224 223 219 220 224 222 223 224 224 226 228 230 229 228 228 228 225 228 224 220 221 221 225 229 231 231 229
251 257 262 262 252 244 244 237 223 223 224 211 216 217 226 230 226 223 225 223 219 219 223 225 225 224 226 228 229 230 228 228 229 231 229 230 227 223 225 227 228 230 232 230
246 254 260 262 259 254 249 244 236 237 233 226 214 199 201 205 224 229 222 224 221 219 219 222 224 225 223 227 229 230 232 229 232 234 232 232 231 227 226 228 231 230 230 230
234 247 256 261 257 258 256 251 248 239 233 233 226 218 207 206 202 212 225 228 224 222 221 220 223 225 225 227 230 231 232 234 232 233 237 236 233 230 229 229 231 234 235 234